• In Russia
  • List of Countries
  • For 7 days
  • Water Temperature
  • Satellite Maps
  • Weather Map
  • Weather Widgets
  • user-avatar
    Login

    Hourly Weather Luksor

    Today, 19 January, Saturday

    Time Temperature Precipitation Wind Pressure Humidity
    00:00 +12°C° 0 mm 1 mps 756 mmHg 46%
    01:00 +11°C° 0 mm 1 mps 756 mmHg 49%
    02:00 +11°C° 0 mm 1 mps 755 mmHg 51%
    03:00 +10°C° 0 mm 1 mps 756 mmHg 54%
    04:00 +10°C° 0 mm 1 mps 756 mmHg 56%
    05:00 +10°C° 0 mm 1 mps 756 mmHg 59%
    06:00 +11°C° 0 mm 1 mps 756 mmHg 55%
    07:00 +12°C° 0 mm 1 mps 756 mmHg 51%
    08:00 +13°C° 0 mm 1 mps 756 mmHg 47%
    09:00 +15°C° 0 mm 1 mps 756 mmHg 41%
    10:00 +18°C° 0 mm 1 mps 756 mmHg 35%
    11:00 +20°C° 0 mm 1 mps 756 mmHg 29%
    12:00 +20°C° 0 mm 2 mps 756 mmHg 25%
    13:00 +21°C° 0 mm 2 mps 755 mmHg 22%
    14:00 +23°C° 0 mm 2 mps 755 mmHg 19%
    15:00 +23°C° 0 mm 2 mps 755 mmHg 19%
    16:00 +21°C° 0 mm 2 mps 755 mmHg 20%
    17:00 +21°C° 0 mm 2 mps 755 mmHg 20%
    18:00 +19°C° 0 mm 2 mps 755 mmHg 22%
    19:00 +18°C° 0 mm 2 mps 755 mmHg 24%
    20:00 +17°C° 0 mm 2 mps 755 mmHg 26%
    21:00 +16°C° 0 mm 2 mps 755 mmHg 27%
    22:00 +15°C° 0 mm 1 mps 755 mmHg 29%
    23:00 +14°C° 0 mm 1 mps 756 mmHg 31%

    Tomorrow, 20 January, Sunday

    Time Temperature Precipitation Wind Pressure Humidity
    00:00 +14°C° 0 mm 1 mps 756 mmHg 33%
    01:00 +13°C° 0 mm 1 mps 756 mmHg 34%
    02:00 +13°C° 0 mm 1 mps 755 mmHg 36%
    03:00 +12°C° 0 mm 1 mps 755 mmHg 38%
    04:00 +12°C° 0 mm 1 mps 755 mmHg 39%
    05:00 +10°C° 0 mm 0 mps 755 mmHg 41%
    06:00 +11°C° 0 mm 0 mps 755 mmHg 37%
    07:00 +13°C° 0 mm 0 mps 755 mmHg 34%
    08:00 +14°C° 0 mm 0 mps 755 mmHg 30%
    09:00 +16°C° 0 mm 0 mps 755 mmHg 26%
    10:00 +18°C° 0 mm 0 mps 755 mmHg 22%
    11:00 +20°C° 0 mm 0 mps 755 mmHg 18%
    12:00 +21°C° 0 mm 0 mps 755 mmHg 16%
    13:00 +22°C° 0 mm 0 mps 754 mmHg 14%
    14:00 +23°C° 0 mm 0 mps 753 mmHg 12%
    15:00 +22°C° 0 mm 0 mps 753 mmHg 12%
    16:00 +21°C° 0 mm 0 mps 753 mmHg 13%
    17:00 +22°C° 0 mm 1 mps 753 mmHg 14%
    18:00 +21°C° 0 mm 1 mps 753 mmHg 15%
    19:00 +20°C° 0 mm 1 mps 754 mmHg 17%
    20:00 +19°C° 0 mm 1 mps 754 mmHg 18%
    21:00 +19°C° 0 mm 1 mps 754 mmHg 19%
    22:00 +18°C° 0 mm 1 mps 754 mmHg 19%
    23:00 +18°C° 0 mm 1 mps 754 mmHg 20%

    Day after tomorrow, 21 January, Monday

    Time Temperature Precipitation Wind Pressure Humidity
    00:00 +16°C° 0 mm 1 mps 754 mmHg 21%
    01:00 +16°C° 0 mm 1 mps 754 mmHg 21%
    02:00 +15°C° 0 mm 1 mps 754 mmHg 22%
    03:00 +14°C° 0 mm 1 mps 754 mmHg 23%
    04:00 +14°C° 0 mm 1 mps 753 mmHg 24%
    05:00 +12°C° 0 mm 0 mps 753 mmHg 25%
    06:00 +15°C° 0 mm 1 mps 753 mmHg 22%
    07:00 +16°C° 0 mm 1 mps 754 mmHg 20%
    08:00 +19°C° 0 mm 1 mps 754 mmHg 18%
    09:00 +21°C° 0 mm 1 mps 754 mmHg 15%
    10:00 +23°C° 0 mm 1 mps 754 mmHg 13%
    11:00 +23°C° 0 mm 0 mps 754 mmHg 11%
    12:00 +26°C° 0 mm 1 mps 754 mmHg 10%
    13:00 +27°C° 0 mm 1 mps 753 mmHg 9%
    14:00 +28°C° 0 mm 1 mps 752 mmHg 8%
    15:00 +27°C° 0 mm 1 mps 752 mmHg 8%
    16:00 +26°C° 0 mm 1 mps 752 mmHg 9%
    17:00 +25°C° 0 mm 1 mps 752 mmHg 10%
    18:00 +24°C° 0 mm 1 mps 753 mmHg 11%
    19:00 +22°C° 0 mm 1 mps 753 mmHg 12%
    20:00 +21°C° 0 mm 1 mps 753 mmHg 13%
    21:00 +20°C° 0 mm 1 mps 753 mmHg 13%
    22:00 +20°C° 0 mm 1 mps 753 mmHg 13%
    23:00 +20°C° 0 mm 1 mps 753 mmHg 13%

    22 January, Tuesday

    Time Temperature Precipitation Wind Pressure Humidity
    00:00 +19°C° 0 mm 1 mps 753 mmHg 14%
    01:00 +18°C° 0 mm 1 mps 753 mmHg 15%
    02:00 +16°C° 0 mm 1 mps 753 mmHg 15%
    03:00 +16°C° 0 mm 1 mps 753 mmHg 16%
    04:00 +15°C° 0 mm 1 mps 753 mmHg 17%
    05:00 +14°C° 0 mm 0 mps 753 mmHg 19%
    06:00 +15°C° 0 mm 0 mps 753 mmHg 17%
    07:00 +16°C° 0 mm 0 mps 753 mmHg 16%
    08:00 +18°C° 0 mm 0 mps 754 mmHg 15%
    09:00 +20°C° 0 mm 0 mps 754 mmHg 14%
    10:00 +22°C° 0 mm 0 mps 754 mmHg 12%
    11:00 +26°C° 0 mm 1 mps 754 mmHg 11%
    12:00 +27°C° 0 mm 1 mps 753 mmHg 10%
    13:00 +28°C° 0 mm 1 mps 752 mmHg 9%
    14:00 +29°C° 0 mm 1 mps 752 mmHg 8%
    15:00 +28°C° 0 mm 1 mps 752 mmHg 8%
    16:00 +27°C° 0 mm 1 mps 752 mmHg 8%
    17:00 +26°C° 0 mm 1 mps 751 mmHg 8%
    18:00 +24°C° 0 mm 2 mps 752 mmHg 9%
    19:00 +23°C° 0 mm 2 mps 752 mmHg 10%
    20:00 +20°C° 0 mm 2 mps 752 mmHg 10%
    21:00 +21°C° 0 mm 1 mps 752 mmHg 11%
    22:00 +20°C° 0 mm 1 mps 752 mmHg 12%
    23:00 +19°C° 0 mm 1 mps 752 mmHg 12%

    23 January, Wednesday

    Time Temperature Precipitation Wind Pressure Humidity
    00:00 +18°C° 0 mm 1 mps 752 mmHg 13%
    01:00 +18°C° 0 mm 1 mps 752 mmHg 14%
    02:00 +16°C° 0 mm 1 mps 751 mmHg 14%
    03:00 +15°C° 0 mm 1 mps 751 mmHg 15%
    04:00 +15°C° 0 mm 1 mps 751 mmHg 16%
    05:00 +13°C° 0 mm 0 mps 751 mmHg 16%
    06:00 +15°C° 0 mm 0 mps 751 mmHg 15%
    07:00 +16°C° 0 mm 0 mps 752 mmHg 13%
    08:00 +18°C° 0 mm 0 mps 752 mmHg 12%
    09:00 +22°C° 0 mm 1 mps 752 mmHg 11%
    10:00 +24°C° 0 mm 1 mps 752 mmHg 10%
    11:00 +27°C° 0 mm 1 mps 751 mmHg 10%
    12:00 +28°C° 0 mm 2 mps 751 mmHg 11%
    13:00 +29°C° 0 mm 2 mps 750 mmHg 12%
    14:00 +30°C° 0 mm 3 mps 749 mmHg 14%
    15:00 +29°C° 0 mm 2 mps 749 mmHg 15%
    16:00 +28°C° 0 mm 2 mps 749 mmHg 16%
    17:00 +27°C° 0 mm 2 mps 749 mmHg 18%
    18:00 +26°C° 0 mm 1 mps 749 mmHg 21%
    19:00 +24°C° 0 mm 1 mps 749 mmHg 23%
    20:00 +23°C° 0 mm 1 mps 750 mmHg 26%
    21:00 +22°C° 0 mm 1 mps 750 mmHg 27%
    22:00 +22°C° 0 mm 1 mps 750 mmHg 27%
    23:00 +21°C° 0 mm 1 mps 750 mmHg 28%

    24 January, Thursday

    Time Temperature Precipitation Wind Pressure Humidity
    00:00 +20°C° 0 mm 1 mps 750 mmHg 29%
    01:00 +18°C° 0 mm 0 mps 750 mmHg 29%
    02:00 +17°C° 0 mm 0 mps 749 mmHg 30%
    03:00 +17°C° 0 mm 0 mps 749 mmHg 30%
    04:00 +16°C° 0 mm 0 mps 749 mmHg 31%
    05:00 +18°C° 0 mm 1 mps 749 mmHg 31%
    06:00 +19°C° 0 mm 1 mps 750 mmHg 29%
    07:00 +21°C° 0 mm 1 mps 750 mmHg 26%
    08:00 +22°C° 0 mm 1 mps 751 mmHg 24%
    09:00 +25°C° 0 mm 1 mps 751 mmHg 20%
    10:00 +27°C° 0 mm 1 mps 751 mmHg 17%
    11:00 +29°C° 0 mm 2 mps 751 mmHg 13%
    12:00 +31°C° 0 mm 2 mps 750 mmHg 11%
    13:00 +32°C° 0 mm 2 mps 750 mmHg 10%
    14:00 +34°C° 0 mm 2 mps 749 mmHg 8%
    15:00 +31°C° 0 mm 1 mps 749 mmHg 8%
    16:00 +30°C° 0 mm 1 mps 749 mmHg 9%
    17:00 +28°C° 0 mm 1 mps 749 mmHg 9%
    18:00 +27°C° 0 mm 1 mps 750 mmHg 11%
    19:00 +26°C° 0 mm 1 mps 750 mmHg 12%
    20:00 +24°C° 0 mm 1 mps 750 mmHg 14%
    21:00 +23°C° 0 mm 1 mps 751 mmHg 14%
    22:00 +23°C° 0 mm 1 mps 751 mmHg 14%
    23:00 +22°C° 0 mm 1 mps 751 mmHg 15%
    Show more